Location: Cheching
(60.0667°N, 164.2167°W)
Time: 01:51:41
(UTC+00:00)

UNISAT 6 - Pass Details

Date: 24 January 2021
Orbit: 607 x 687 km, 97.7° (Epoch: 05 March)

Event Time Altitude Azimuth Distance (km) Brightness Sun altitude
Rises 18:08:18 0° 186° (S) 2,875 ? -9.3°
Reaches altitude 10° 18:10:35 10° 195° (SSW) 1,983 ? -9.1°
Maximum altitude 18:14:37 38° 264° (W) 961 ? -8.6°
Drops below altitude 10° 18:18:45 10° 333° (NNW) 2,036 ? -8.1°
Sets 18:21:08 0° 341° (NNW) 2,963 ? -7.8°
